Welcome to our Virtual Airline
Sign-in:

Flight MFC48851

  • Submitted By: Georg Werderitsch
  • Departure Airport: Horsfeld (4Z5)
  • Arrival Airport: Glacier Creek (KGZ)
  • Aircraft: BELL 206 (M2061MM)
  • Flight Time: 00.38.21
  • Date Submitted: 2019/03/15
  • Route: STOP AT ROCK LAKE CABIN (RKLK) AND SKOLIA LAKE CABIN (SKOL
  • Status: Accepted
Flight Details
Gross Revenue:
(10 load / $ 94.00 per unit
$ 940.00
Fuel Cost:
(48.988 fuel used @ 5.1 / unit)
$ 249.84

Additional Log Information:

View Log

FS[13:51] ----- Flight Opened -----
FS[13:51] Cigar Box - 1.1.4.0
FS[13:51] FS: FSX
FS[13:51] FSUIPC: v4,973
FS[13:51] Flight Number: MFC48851
FS[13:51] FS Aircraft: Bell 206B JetRanger CIRP
FS[13:51] FS Model: helicopter
FS[13:51] FS Type: JetRanger
FS[13:51] Departure: 4Z5
FS[13:51] Arrival: KGZ
FS[13:51] Flight Level: 8500
FS[13:51] Flight Type: H
FS[13:51] Passengers: 10
FS[13:51] FOB: 523 lbs
FS[13:51] Gate: n/a
FS[13:51] NOTE: Parking Brake Ignored
FS[13:51] Crash Detection: Disabled
FS[13:51] Crash Detection Aircraft: Disabled
FS[13:51] Engines: 1 Helo
FS[13:51] NOTE: Boarding has started
FS[13:51] Engine 1: Started
FS[13:51] Light Data: Navigation ON
FS[13:51] Light Data: Beacon ON
FS[13:51] Light Data: Strobe lights ON
FS[13:51] Main Door Closed
FS[13:51] COM1: 128.30
FS[13:51] COM2: 127.80
FS[13:51] Transponder: 1200
FS[13:51] NAV1: 113.70
FS[13:51] NAV2: 110.60
FS[13:51] ADF1: 284.0
FS[13:51] ADF2: 240.0
FS[13:51] Navigation Mode: NAV
FS[13:52] NOTE: Taxi started
FS[13:52] NOTE: ----- TAKE OFF -----
FS[13:52] GS: 31 knots
FS[13:52] TAS: 27 knots
FS[13:52] IAS: 25 knots
FS[13:52] VS: 326 fpm
FS[13:52] FOB: 522 lbs
FS[13:52] Heading: 5°
FS[13:52] Pitch: 4°
FS[13:52] Bank: 21°
FS[13:52] Aircraft Weight: 2622,00 lbs
FS[13:52] Nearest Airport: 4Z5
FS[13:52] Distance: 0,09 miles
FS[13:52] Runway: ???
FS[13:52] Ground Surface: Forest
FS[13:52] Ground Condition: Normal
FS[13:52] NOTE: Weather Report
FS[13:52] Wind Heading: 336°
FS[13:52] Wind Speed: 0 knots
FS[13:52] OAT: 7° C
FS[13:52] TAT: 7° C
FS[13:52] Precipitation: None
FS[13:52] Dew Point: -2° C
FS[13:52] Visibility: 62 miles
FS[13:52] METAR: No METAR available for 4Z5.
FS[13:52] NOTE: Climb started
FS[13:52] View Mode: Virtual Cockpit
FS[14:01] NOTE: ----- LANDED -----
FS[14:01] Landing Rate: -134,57 fpm
FS[14:01] GS: 1 knots
FS[14:01] TAS: 2 knots
FS[14:01] IAS: 2 knots
FS[14:01] VS: -133 fpm
FS[14:01] FOB: 496 lbs
FS[14:01] Heading: 208°
FS[14:01] Pitch: 7°
FS[14:01] Bank: 0°
FS[14:01] Aircraft Weight: 2596,38 lbs
FS[14:01] Nearest Airport: RKLK
FS[14:01] Distance: 0,03 miles
FS[14:01] Runway: ???
FS[14:01] Ground Surface: Grass Bumpy
FS[14:01] Ground Condition: Normal
FS[14:01] NOTE: Weather Report
FS[14:01] Wind Heading: 336°
FS[14:01] Wind Speed: 0 knots
FS[14:01] OAT: 7° C
FS[14:01] TAT: 7° C
FS[14:01] Precipitation: None
FS[14:01] Dew Point: -2° C
FS[14:01] Visibility: 62 miles
FS[14:01] METAR: KGZH 151439Z AUTO 30009G15KT 270V330 10SM OVC030 18/11 A3018 RMK AO2 PRESRR T01780111KGZL 151435Z AUTO 34012G21KT 10SM CLR 05/M09 A3040 RMK AO2KGZN 151420Z AUTO 35014KT 10SM CLR 05/M03 A3045 RMK AO2KGZS 151435Z AUTO 31012KT 10SM CLR 10/02 A3014 RMK A01
FS[14:01] View Mode: Virtual Cockpit
FS[14:01] NOTE: Taxi started
FS[14:02] View Mode: Virtual Cockpit
FS[14:18] NOTE: ----- LANDED -----
FS[14:18] Landing Rate: -53,06 fpm
FS[14:18] GS: 0 knots
FS[14:18] TAS: 0 knots
FS[14:18] IAS: 0 knots
FS[14:18] VS: -54 fpm
FS[14:18] FOB: 448 lbs
FS[14:18] Heading: 52°
FS[14:18] Pitch: 1°
FS[14:18] Bank: -1°
FS[14:18] Aircraft Weight: 2548,80 lbs
FS[14:18] Nearest Airport: SKOL
FS[14:18] Distance: 0,02 miles
FS[14:18] Runway: ???
FS[14:18] Ground Surface: Gravel
FS[14:18] Ground Condition: Normal
FS[14:18] NOTE: Weather Report
FS[14:18] Wind Heading: 336°
FS[14:18] Wind Speed: 0 knots
FS[14:18] OAT: 6° C
FS[14:18] TAT: 6° C
FS[14:18] Precipitation: None
FS[14:18] Dew Point: -3° C
FS[14:18] Visibility: 62 miles
FS[14:18] METAR: KGZH 151439Z AUTO 30009G15KT 270V330 10SM OVC030 18/11 A3018 RMK AO2 PRESRR T01780111KGZL 151435Z AUTO 34012G21KT 10SM CLR 05/M09 A3040 RMK AO2KGZN 151420Z AUTO 35014KT 10SM CLR 05/M03 A3045 RMK AO2KGZS 151435Z AUTO 31012KT 10SM CLR 10/02 A3014 RMK A01
FS[14:18] View Mode: Virtual Cockpit
FS[14:19] View Mode: Virtual Cockpit
FS[14:30] NOTE: ----- LANDED -----
FS[14:30] Landing Rate: -40,75 fpm
FS[14:30] GS: 1 knots
FS[14:30] TAS: 3 knots
FS[14:30] IAS: 3 knots
FS[14:30] VS: -39 fpm
FS[14:30] FOB: 415 lbs
FS[14:30] Heading: 281°
FS[14:30] Pitch: 2°
FS[14:30] Bank: 0°
FS[14:30] Aircraft Weight: 2515,55 lbs
FS[14:30] Nearest Airport: KGZ
FS[14:30] Distance: 0,09 miles
FS[14:30] Runway: ???
FS[14:30] Ground Surface: Grass Bumpy
FS[14:30] Ground Condition: Normal
FS[14:30] NOTE: Weather Report
FS[14:30] Wind Heading: 337°
FS[14:30] Wind Speed: 0 knots
FS[14:30] OAT: 10° C
FS[14:30] TAT: 10° C
FS[14:30] Precipitation: None
FS[14:30] Dew Point: 0° C
FS[14:30] Visibility: 62 miles
FS[14:30] METAR: KGZH 151439Z AUTO 30009G15KT 270V330 10SM OVC030 18/11 A3018 RMK AO2 PRESRR T01780111KGZL 151435Z AUTO 34012G21KT 10SM CLR 05/M09 A3040 RMK AO2KGZN 151420Z AUTO 35014KT 10SM CLR 05/M03 A3045 RMK AO2KGZS 151435Z AUTO 31012KT 10SM CLR 10/02 A3014 RMK A01
FS[14:30] View Mode: Virtual Cockpit
FS[14:30] Gate: n/a
FS[14:30] NOTE: Flight Completed
FS[14:30] FS Aircraft: Bell 206B JetRanger CIRP
FS[14:30] FS Model: helicopter
FS[14:30] FS Type: JetRanger
FS[14:30] FOB: 415 lbs
FS[14:30] Fuel Used: 108 lbs
FS[14:30] Flight Time: 00:38:21
FS[14:30] Flight Time (Dawn): 00:00:00
FS[14:30] Flight Time (Day): 00:38:21
FS[14:30] Flight Time (Dusk): 00:00:00
FS[14:30] Flight Time (Night): 00:00:00
FS[14:30] Total Landings: 3
FS[14:30] MaxSim Rate: 0x
FS[14:30] Cigar Box - 1.1.4.0
FS[14:30] ----- Flight Closed -----

Route Map